GLO2140 SBFZ-SBFI

Flight info

Callsign GLO2140
Flight time 3h 46m
Altitude 36000
Route DALVO DCT GIDMI UZ18 VADOP DCT ASDOV DCT MORDA UM532 PRR DCT ILMIS
Aircraft B738/M-SDFGIKLORWXY/LB1

Departure

Time 2026-04-26 12:02
Airport Pinto Martins International Airport (SBFZ)

Arrival

Time 2026-04-26 15:48
Airport Cataratas International Airport (SBFI)
Time Latitude Longitude Altitude Speed Heading
2026-04-26 11:38 -3.77828 -38.53925 90 ft 0 kts 218°
2026-04-26 11:56 -3.77810 -38.53910 95 ft 4 kts 224°
2026-04-26 11:56 -3.77792 -38.53890 92 ft 4 kts 238°
2026-04-26 11:57 -3.77783 -38.53867 92 ft 4 kts 278°
2026-04-26 11:57 -3.77787 -38.53856 92 ft 1 kts 307°
2026-04-26 11:58 -3.77785 -38.53859 92 ft 2 kts 307°
2026-04-26 11:59 -3.77769 -38.53879 92 ft 6 kts 307°
2026-04-26 11:59 -3.77738 -38.53925 92 ft 10 kts 301°
2026-04-26 11:59 -3.77702 -38.54002 93 ft 14 kts 286°
2026-04-26 11:59 -3.77673 -38.54112 94 ft 18 kts 285°
2026-04-26 12:00 -3.77638 -38.54241 93 ft 20 kts 285°
2026-04-26 12:00 -3.77582 -38.54367 92 ft 19 kts 339°
2026-04-26 12:00 -3.77452 -38.54380 95 ft 12 kts 13°
2026-04-26 12:00 -3.77383 -38.54358 95 ft 11 kts 34°
2026-04-26 12:01 -3.77360 -38.54284 83 ft 13 kts 101°
2026-04-26 12:01 -3.77405 -38.54109 98 ft 56 kts 105°
2026-04-26 12:01 -3.77569 -38.53496 90 ft 124 kts 105°
2026-04-26 12:01 -3.77847 -38.52480 137 ft 174 kts 106°
2026-04-26 12:02 -3.78184 -38.51279 879 ft 179 kts 105°
2026-04-26 12:02 -3.78408 -38.50491 1474 ft 177 kts 106°
2026-04-26 12:02 -3.78885 -38.48863 2278 ft 198 kts 117°
2026-04-26 12:02 -3.79945 -38.47903 2473 ft 223 kts 161°
2026-04-26 12:03 -3.81565 -38.47830 2700 ft 248 kts 187°
2026-04-26 12:03 -3.83329 -38.48080 3193 ft 262 kts 186°
2026-04-26 12:03 -3.85145 -38.48301 4017 ft 263 kts 185°
2026-04-26 12:03 -3.86975 -38.48476 4836 ft 266 kts 184°
2026-04-26 12:04 -3.88832 -38.48618 5599 ft 270 kts 183°
2026-04-26 12:04 -3.90725 -38.48744 6369 ft 274 kts 182°
2026-04-26 12:04 -3.92632 -38.48967 7121 ft 280 kts 198°
2026-04-26 12:04 -3.94253 -38.50046 7894 ft 288 kts 230°
2026-04-26 12:05 -3.95231 -38.51800 8824 ft 290 kts 245°
2026-04-26 12:05 -3.96027 -38.53683 9576 ft 298 kts 247°
2026-04-26 12:05 -3.96807 -38.55624 10277 ft 302 kts 248°
2026-04-26 12:05 -3.97602 -38.57612 10543 ft 322 kts 248°
2026-04-26 12:06 -3.98476 -38.59787 10757 ft 342 kts 247°
2026-04-26 12:06 -3.99386 -38.62033 11186 ft 353 kts 247°
2026-04-26 12:06 -4.00306 -38.64293 11891 ft 356 kts 247°
2026-04-26 12:06 -4.01255 -38.66610 12588 ft 362 kts 247°
2026-04-26 12:07 -4.02215 -38.68951 13257 ft 364 kts 247°
2026-04-26 12:07 -4.03184 -38.71305 13953 ft 367 kts 247°
2026-04-26 12:07 -4.03825 -38.72862 14324 ft 369 kts 247°
2026-04-26 12:07 -4.05146 -38.76065 14994 ft 375 kts 247°
2026-04-26 12:08 -4.05807 -38.77668 15356 ft 377 kts 247°
2026-04-26 12:08 -4.06814 -38.80109 15896 ft 380 kts 247°
2026-04-26 12:08 -4.07828 -38.82567 16411 ft 384 kts 247°
2026-04-26 12:08 -4.08852 -38.85047 16902 ft 387 kts 247°
2026-04-26 12:09 -4.09886 -38.87555 17417 ft 390 kts 247°
2026-04-26 12:09 -4.10927 -38.90079 17902 ft 394 kts 247°
2026-04-26 12:09 -4.11978 -38.92628 18368 ft 398 kts 247°
2026-04-26 12:09 -4.13039 -38.95203 18794 ft 401 kts 247°
2026-04-26 12:10 -4.14106 -38.97791 19198 ft 404 kts 247°
2026-04-26 12:10 -4.15181 -39.00398 19624 ft 406 kts 247°
2026-04-26 12:10 -4.16263 -39.03023 20042 ft 409 kts 247°
2026-04-26 12:10 -4.17338 -39.05631 20439 ft 412 kts 247°
2026-04-26 12:11 -4.18438 -39.08302 20821 ft 416 kts 247°
2026-04-26 12:11 -4.19547 -39.10993 21206 ft 419 kts 247°
2026-04-26 12:11 -4.20662 -39.13699 21575 ft 422 kts 247°
2026-04-26 12:11 -4.21784 -39.16424 21961 ft 425 kts 247°
2026-04-26 12:12 -4.22918 -39.19176 22325 ft 428 kts 247°
2026-04-26 12:12 -4.24059 -39.21947 22704 ft 431 kts 247°
2026-04-26 12:12 -4.25205 -39.24731 23065 ft 434 kts 247°
2026-04-26 12:12 -4.25968 -39.26585 23298 ft 436 kts 247°
2026-04-26 12:13 -4.27524 -39.30363 23720 ft 440 kts 247°
2026-04-26 12:13 -4.28690 -39.33197 24028 ft 442 kts 247°
2026-04-26 12:13 -4.29865 -39.36053 24348 ft 443 kts 247°
2026-04-26 12:13 -4.31043 -39.38914 24656 ft 445 kts 247°
2026-04-26 12:14 -4.32212 -39.41756 24941 ft 448 kts 247°
2026-04-26 12:14 -4.33400 -39.44645 25234 ft 450 kts 247°
2026-04-26 12:14 -4.34597 -39.47553 25528 ft 451 kts 247°
2026-04-26 12:14 -4.35877 -39.50435 25824 ft 453 kts 240°
2026-04-26 12:15 -4.37600 -39.53073 26098 ft 453 kts 230°
2026-04-26 12:15 -4.39717 -39.55418 26402 ft 453 kts 221°
2026-04-26 12:15 -4.42167 -39.57399 26674 ft 453 kts 215°
2026-04-26 12:15 -4.44716 -39.59267 26925 ft 455 kts 214°
2026-04-26 12:16 -4.47268 -39.61101 27161 ft 458 kts 214°
2026-04-26 12:16 -4.49894 -39.62987 27450 ft 459 kts 214°
2026-04-26 12:16 -4.52488 -39.64862 27731 ft 461 kts 214°
2026-04-26 12:16 -4.55054 -39.66733 27971 ft 462 kts 214°
2026-04-26 12:17 -4.57653 -39.68640 28212 ft 464 kts 215°
2026-04-26 12:17 -4.60265 -39.70565 28464 ft 466 kts 215°
2026-04-26 12:17 -4.62879 -39.72495 28700 ft 468 kts 215°
2026-04-26 12:17 -4.65508 -39.74439 28935 ft 470 kts 215°
2026-04-26 12:18 -4.68142 -39.76387 29152 ft 471 kts 215°
2026-04-26 12:18 -4.70786 -39.78341 29379 ft 473 kts 215°
2026-04-26 12:18 -4.73450 -39.80312 29599 ft 475 kts 215°
2026-04-26 12:18 -4.76114 -39.82280 29804 ft 477 kts 215°
2026-04-26 12:19 -4.78787 -39.84256 30003 ft 478 kts 214°
2026-04-26 12:19 -4.81475 -39.86243 30192 ft 480 kts 215°
2026-04-26 12:19 -4.84159 -39.88227 30385 ft 481 kts 215°
2026-04-26 12:19 -4.86868 -39.90230 30574 ft 482 kts 214°
2026-04-26 12:20 -4.89565 -39.92224 30834 ft 481 kts 214°
2026-04-26 12:20 -4.92252 -39.94212 31138 ft 479 kts 214°
2026-04-26 12:20 -4.94930 -39.96193 31411 ft 478 kts 214°
2026-04-26 12:20 -4.97613 -39.98177 31645 ft 478 kts 214°
2026-04-26 12:21 -5.00261 -40.00136 31885 ft 478 kts 214°
2026-04-26 12:21 -5.02935 -40.02114 32153 ft 477 kts 214°
2026-04-26 12:21 -5.05604 -40.04089 32418 ft 477 kts 214°
2026-04-26 12:21 -5.08269 -40.06061 32699 ft 476 kts 214°
2026-04-26 12:22 -5.10938 -40.08036 32958 ft 476 kts 214°
2026-04-26 12:22 -5.13599 -40.10005 33234 ft 475 kts 214°
2026-04-26 12:22 -5.16254 -40.11970 33515 ft 474 kts 214°
2026-04-26 12:22 -5.18904 -40.13932 33783 ft 473 kts 214°
2026-04-26 12:23 -5.21550 -40.15891 34038 ft 473 kts 214°
2026-04-26 12:23 -5.24192 -40.17847 34283 ft 472 kts 214°
2026-04-26 12:23 -5.26829 -40.19800 34491 ft 471 kts 214°
2026-04-26 12:23 -5.29463 -40.21751 34701 ft 471 kts 214°
2026-04-26 12:24 -5.32100 -40.23704 34924 ft 470 kts 214°
2026-04-26 12:24 -5.34726 -40.25650 35132 ft 469 kts 214°
2026-04-26 12:24 -5.37351 -40.27594 35328 ft 469 kts 214°
2026-04-26 12:25 -5.42591 -40.31476 35748 ft 468 kts 214°
2026-04-26 12:25 -5.45211 -40.33418 35951 ft 467 kts 214°
2026-04-26 12:25 -5.50455 -40.37305 36009 ft 470 kts 214°
2026-04-26 12:26 -5.55670 -40.41171 36013 ft 467 kts 214°
2026-04-26 12:26 -5.60875 -40.45032 36014 ft 464 kts 214°
2026-04-26 12:27 -5.66055 -40.48873 36012 ft 462 kts 214°
2026-04-26 12:27 -5.71224 -40.52708 36020 ft 461 kts 214°
2026-04-26 12:28 -5.76386 -40.56540 36019 ft 462 kts 214°
2026-04-26 12:28 -5.81566 -40.60385 36021 ft 463 kts 214°
2026-04-26 12:29 -5.86767 -40.64246 36027 ft 466 kts 214°
2026-04-26 12:30 -5.94578 -40.70051 36038 ft 469 kts 214°
2026-04-26 12:30 -5.99846 -40.73968 36024 ft 472 kts 214°
2026-04-26 12:31 -6.07778 -40.79870 36026 ft 474 kts 215°
2026-04-26 12:31 -6.13076 -40.83813 36029 ft 474 kts 215°
2026-04-26 12:32 -6.18384 -40.87764 36017 ft 474 kts 215°
2026-04-26 12:33 -6.26305 -40.93662 36019 ft 473 kts 215°
2026-04-26 12:33 -6.31588 -40.97597 36025 ft 472 kts 215°
2026-04-26 12:34 -6.36851 -41.01518 36021 ft 471 kts 215°
2026-04-26 12:34 -6.42104 -41.05432 36023 ft 470 kts 215°
2026-04-26 12:35 -6.47344 -41.09339 36022 ft 469 kts 215°
2026-04-26 12:35 -6.52582 -41.13245 36021 ft 468 kts 215°
2026-04-26 12:36 -6.57781 -41.17123 36024 ft 468 kts 215°
2026-04-26 12:36 -6.63006 -41.21021 36024 ft 468 kts 215°
2026-04-26 12:37 -6.68238 -41.24924 36022 ft 468 kts 215°
2026-04-26 12:37 -6.73474 -41.28831 36026 ft 468 kts 216°
2026-04-26 12:38 -6.78716 -41.32745 36019 ft 469 kts 216°
2026-04-26 12:38 -6.83961 -41.36663 36028 ft 469 kts 216°
2026-04-26 12:39 -6.89205 -41.40582 36019 ft 470 kts 216°
2026-04-26 12:39 -6.94426 -41.44483 36019 ft 470 kts 216°
2026-04-26 12:40 -6.99678 -41.48410 36019 ft 470 kts 216°
2026-04-26 12:40 -7.04937 -41.52343 36015 ft 471 kts 216°
2026-04-26 12:41 -7.10188 -41.56271 36017 ft 470 kts 216°
2026-04-26 12:41 -7.15439 -41.60200 36016 ft 470 kts 216°
2026-04-26 12:42 -7.20684 -41.64126 36013 ft 469 kts 216°
2026-04-26 12:42 -7.25917 -41.68044 36013 ft 469 kts 216°
2026-04-26 12:43 -7.31145 -41.71959 36013 ft 468 kts 216°
2026-04-26 12:43 -7.36372 -41.75875 36012 ft 468 kts 216°
2026-04-26 12:44 -7.41594 -41.79788 36017 ft 467 kts 216°
2026-04-26 12:44 -7.46806 -41.83695 36015 ft 467 kts 216°
2026-04-26 12:45 -7.52022 -41.87606 36013 ft 467 kts 216°
2026-04-26 12:45 -7.57234 -41.91515 36014 ft 467 kts 216°
2026-04-26 12:46 -7.62455 -41.95433 36013 ft 468 kts 216°
2026-04-26 12:46 -7.67640 -41.99323 36012 ft 468 kts 216°
2026-04-26 12:47 -7.72861 -42.03243 36013 ft 468 kts 216°
2026-04-26 12:47 -7.78090 -42.07170 36016 ft 468 kts 216°
2026-04-26 12:48 -7.83315 -42.11095 36013 ft 469 kts 216°
2026-04-26 12:48 -7.88547 -42.15027 36015 ft 469 kts 216°
2026-04-26 12:49 -7.93775 -42.18957 36015 ft 469 kts 216°
2026-04-26 12:49 -7.99003 -42.22889 36015 ft 469 kts 216°
2026-04-26 12:50 -8.04235 -42.26824 36018 ft 469 kts 216°
2026-04-26 12:50 -8.09464 -42.30759 36014 ft 468 kts 216°
2026-04-26 12:51 -8.14691 -42.34694 36015 ft 468 kts 216°
2026-04-26 12:51 -8.19913 -42.38626 36011 ft 468 kts 216°
2026-04-26 12:52 -8.25095 -42.42529 36020 ft 467 kts 216°
2026-04-26 12:52 -8.30306 -42.46455 36020 ft 467 kts 216°
2026-04-26 12:53 -8.35512 -42.50379 36014 ft 466 kts 216°
2026-04-26 12:53 -8.40709 -42.54298 36026 ft 466 kts 216°
2026-04-26 12:54 -8.45881 -42.58199 36025 ft 466 kts 216°
2026-04-26 12:54 -8.51075 -42.62118 36024 ft 466 kts 216°
2026-04-26 12:55 -8.55432 -42.65407 36030 ft 466 kts 216°
2026-04-26 12:55 -8.60432 -42.69183 36030 ft 466 kts 216°
2026-04-26 12:56 -8.65627 -42.73105 36036 ft 466 kts 216°
2026-04-26 12:56 -8.70833 -42.77032 36032 ft 467 kts 216°
2026-04-26 12:57 -8.76035 -42.80959 36037 ft 467 kts 216°
2026-04-26 12:57 -8.81251 -42.84899 36037 ft 467 kts 216°
2026-04-26 12:58 -8.89031 -42.90779 36036 ft 467 kts 216°
2026-04-26 12:58 -8.94274 -42.94743 36039 ft 468 kts 216°
2026-04-26 12:59 -8.99458 -42.98664 36036 ft 468 kts 216°
2026-04-26 12:59 -9.04671 -43.02609 36039 ft 468 kts 216°
2026-04-26 13:00 -9.09892 -43.06561 36035 ft 468 kts 216°
2026-04-26 13:00 -9.15113 -43.10514 36038 ft 468 kts 216°
2026-04-26 13:01 -9.20326 -43.14463 36034 ft 468 kts 216°
2026-04-26 13:01 -9.25541 -43.18415 36036 ft 468 kts 216°
2026-04-26 13:02 -9.30752 -43.22365 36036 ft 467 kts 216°
2026-04-26 13:02 -9.35916 -43.26282 36034 ft 467 kts 216°
2026-04-26 13:03 -9.41116 -43.30226 36034 ft 466 kts 216°
2026-04-26 13:03 -9.46309 -43.34168 36037 ft 466 kts 216°
2026-04-26 13:04 -9.51490 -43.38102 36035 ft 465 kts 216°
2026-04-26 13:04 -9.56673 -43.42038 36034 ft 465 kts 216°
2026-04-26 13:05 -9.61845 -43.45968 36031 ft 465 kts 216°
2026-04-26 13:05 -9.67018 -43.49901 36040 ft 464 kts 216°
2026-04-26 13:06 -9.72189 -43.53833 36037 ft 464 kts 216°
2026-04-26 13:06 -9.77325 -43.57740 36032 ft 464 kts 216°
2026-04-26 13:07 -9.82496 -43.61676 36035 ft 464 kts 216°
2026-04-26 13:07 -9.87675 -43.65619 36032 ft 465 kts 216°
2026-04-26 13:08 -9.92853 -43.69563 36031 ft 465 kts 216°
2026-04-26 13:08 -9.97996 -43.73483 36032 ft 466 kts 216°
2026-04-26 13:09 -10.03186 -43.77440 36032 ft 467 kts 216°
2026-04-26 13:09 -10.08377 -43.81399 36028 ft 467 kts 216°
2026-04-26 13:10 -10.13574 -43.85367 36030 ft 468 kts 216°
2026-04-26 13:10 -10.18781 -43.89344 36030 ft 468 kts 216°
2026-04-26 13:11 -10.23985 -43.93321 36029 ft 469 kts 216°
2026-04-26 13:11 -10.29197 -43.97306 36030 ft 469 kts 217°
2026-04-26 13:12 -10.34408 -44.01292 36034 ft 469 kts 216°
2026-04-26 13:12 -10.39618 -44.05279 36025 ft 468 kts 216°
2026-04-26 13:13 -10.44813 -44.09256 36028 ft 467 kts 216°
2026-04-26 13:13 -10.49967 -44.13204 36029 ft 466 kts 216°
2026-04-26 13:14 -10.55136 -44.17163 36030 ft 465 kts 216°
2026-04-26 13:14 -10.60297 -44.21114 36030 ft 464 kts 216°
2026-04-26 13:15 -10.65446 -44.25058 36031 ft 463 kts 216°
2026-04-26 13:15 -10.70582 -44.28996 36033 ft 462 kts 216°
2026-04-26 13:16 -10.75713 -44.32931 36034 ft 461 kts 216°
2026-04-26 13:16 -10.80822 -44.36851 36034 ft 460 kts 216°
2026-04-26 13:17 -10.88440 -44.42700 36035 ft 459 kts 217°
2026-04-26 13:18 -10.96085 -44.48574 36032 ft 459 kts 216°
2026-04-26 13:19 -11.04073 -44.53875 36046 ft 457 kts 204°
2026-04-26 13:19 -11.09887 -44.56534 36038 ft 458 kts 203°
2026-04-26 13:20 -11.15730 -44.59175 36030 ft 459 kts 203°
2026-04-26 13:20 -11.21555 -44.61856 36033 ft 459 kts 204°
2026-04-26 13:21 -11.27370 -44.64560 36032 ft 460 kts 204°
2026-04-26 13:21 -11.33193 -44.67277 36030 ft 460 kts 204°
2026-04-26 13:22 -11.39014 -44.69994 36029 ft 460 kts 204°
2026-04-26 13:22 -11.44811 -44.72699 36029 ft 460 kts 204°
2026-04-26 13:23 -11.50634 -44.75417 36029 ft 460 kts 204°
2026-04-26 13:23 -11.56454 -44.78135 36030 ft 460 kts 204°
2026-04-26 13:24 -11.62280 -44.80856 36029 ft 460 kts 204°
2026-04-26 13:24 -11.68104 -44.83578 36032 ft 460 kts 204°
2026-04-26 13:25 -11.73928 -44.86302 36031 ft 460 kts 204°
2026-04-26 13:25 -11.79746 -44.89024 36032 ft 460 kts 204°
2026-04-26 13:26 -11.85572 -44.91751 36034 ft 460 kts 204°
2026-04-26 13:26 -11.91404 -44.94482 36036 ft 461 kts 204°
2026-04-26 13:27 -11.97203 -44.97199 36034 ft 461 kts 204°
2026-04-26 13:27 -12.03041 -44.99935 36035 ft 461 kts 204°
2026-04-26 13:28 -12.08879 -45.02673 36040 ft 461 kts 204°
2026-04-26 13:28 -12.14712 -45.05410 36035 ft 461 kts 204°
2026-04-26 13:29 -12.20548 -45.08149 36038 ft 461 kts 204°
2026-04-26 13:29 -12.26379 -45.10888 36039 ft 461 kts 204°
2026-04-26 13:30 -12.32211 -45.13628 36037 ft 461 kts 204°
2026-04-26 13:30 -12.38047 -45.16372 36038 ft 461 kts 204°
2026-04-26 13:31 -12.43878 -45.19115 36031 ft 462 kts 204°
2026-04-26 13:31 -12.49681 -45.21846 36041 ft 462 kts 205°
2026-04-26 13:32 -12.55527 -45.24599 36033 ft 462 kts 204°
2026-04-26 13:32 -12.61372 -45.27350 36033 ft 463 kts 204°
2026-04-26 13:33 -12.67219 -45.30102 36035 ft 463 kts 205°
2026-04-26 13:33 -12.73073 -45.32859 36039 ft 463 kts 205°
2026-04-26 13:34 -12.78928 -45.35619 36039 ft 463 kts 205°
2026-04-26 13:34 -12.84783 -45.38381 36039 ft 463 kts 205°
2026-04-26 13:35 -12.90640 -45.41145 36040 ft 463 kts 205°
2026-04-26 13:35 -12.96494 -45.43908 36034 ft 463 kts 205°
2026-04-26 13:36 -13.02353 -45.46676 36036 ft 463 kts 205°
2026-04-26 13:36 -13.08214 -45.49446 36043 ft 464 kts 205°
2026-04-26 13:37 -13.14039 -45.52201 36040 ft 464 kts 204°
2026-04-26 13:37 -13.19897 -45.54972 36040 ft 464 kts 204°
2026-04-26 13:38 -13.25763 -45.57750 36049 ft 464 kts 204°
2026-04-26 13:38 -13.31631 -45.60530 36044 ft 464 kts 205°
2026-04-26 13:39 -13.37335 -45.63650 36044 ft 464 kts 210°
2026-04-26 13:39 -13.42920 -45.66984 36045 ft 464 kts 210°
2026-04-26 13:40 -13.48515 -45.70318 36047 ft 465 kts 210°
2026-04-26 13:40 -13.54128 -45.73620 36045 ft 464 kts 209°
2026-04-26 13:41 -13.59738 -45.76903 36048 ft 464 kts 209°
2026-04-26 13:41 -13.65352 -45.80188 36048 ft 464 kts 209°
2026-04-26 13:42 -13.70016 -45.82921 36055 ft 464 kts 209°
2026-04-26 13:42 -13.76531 -45.86741 36050 ft 464 kts 209°
2026-04-26 13:43 -13.82130 -45.90027 36057 ft 463 kts 209°
2026-04-26 13:43 -13.86825 -45.92783 36055 ft 463 kts 209°
2026-04-26 13:44 -13.92386 -45.96049 36057 ft 463 kts 209°
2026-04-26 13:44 -13.97980 -45.99337 36061 ft 462 kts 209°
2026-04-26 13:45 -14.03568 -46.02622 36049 ft 463 kts 209°
2026-04-26 13:45 -14.09161 -46.05914 36053 ft 463 kts 209°
2026-04-26 13:46 -14.14753 -46.09206 36051 ft 463 kts 209°
2026-04-26 13:46 -14.20342 -46.12509 36058 ft 463 kts 209°
2026-04-26 13:47 -14.25892 -46.15797 36047 ft 464 kts 209°
2026-04-26 13:47 -14.31491 -46.19116 36044 ft 464 kts 209°
2026-04-26 13:48 -14.37094 -46.22438 36046 ft 464 kts 209°
2026-04-26 13:48 -14.42692 -46.25760 36040 ft 464 kts 209°
2026-04-26 13:49 -14.48297 -46.29087 36043 ft 464 kts 209°
2026-04-26 13:49 -14.53908 -46.32421 36041 ft 464 kts 209°
2026-04-26 13:50 -14.59508 -46.35749 36041 ft 464 kts 209°
2026-04-26 13:50 -14.64978 -46.39273 36040 ft 463 kts 213°
2026-04-26 13:51 -14.70320 -46.42993 36041 ft 463 kts 214°
2026-04-26 13:51 -14.75610 -46.46693 36041 ft 462 kts 213°
2026-04-26 13:52 -14.80813 -46.50300 36040 ft 461 kts 213°
2026-04-26 13:52 -14.86149 -46.53981 36046 ft 461 kts 213°
2026-04-26 13:53 -14.91487 -46.57660 36046 ft 461 kts 213°
2026-04-26 13:53 -14.96825 -46.61340 36051 ft 461 kts 213°
2026-04-26 13:54 -15.02170 -46.65029 36062 ft 463 kts 213°
2026-04-26 13:54 -15.07558 -46.68750 36295 ft 467 kts 213°
2026-04-26 13:55 -15.12944 -46.72472 36843 ft 464 kts 213°
2026-04-26 13:55 -15.14717 -46.73699 36998 ft 463 kts 213°
2026-04-26 13:55 -15.20958 -46.78016 37413 ft 463 kts 213°
2026-04-26 13:56 -15.23634 -46.79868 37645 ft 462 kts 213°
2026-04-26 13:56 -15.26302 -46.81715 37863 ft 461 kts 213°
2026-04-26 13:56 -15.28972 -46.83564 38028 ft 461 kts 213°
2026-04-26 13:57 -15.34329 -46.87275 38050 ft 464 kts 214°
2026-04-26 13:57 -15.39685 -46.90988 38044 ft 462 kts 214°
2026-04-26 13:58 -15.45026 -46.94693 38042 ft 461 kts 214°
2026-04-26 13:58 -15.50341 -46.98383 38054 ft 459 kts 214°
2026-04-26 13:59 -15.55644 -47.02066 38047 ft 458 kts 214°
2026-04-26 13:59 -15.60945 -47.05751 38054 ft 458 kts 214°
2026-04-26 14:00 -15.71510 -47.13100 38050 ft 459 kts 214°
2026-04-26 14:01 -15.76821 -47.16799 38053 ft 460 kts 214°
2026-04-26 14:01 -15.82140 -47.20505 38052 ft 461 kts 214°
2026-04-26 14:02 -15.87476 -47.24225 38058 ft 462 kts 214°
2026-04-26 14:02 -15.92823 -47.27956 38048 ft 463 kts 214°
2026-04-26 14:03 -15.98178 -47.31695 38047 ft 464 kts 214°
2026-04-26 14:03 -16.03534 -47.35436 38047 ft 464 kts 214°
2026-04-26 14:04 -16.08897 -47.39185 38047 ft 464 kts 214°
2026-04-26 14:04 -16.14254 -47.42933 38047 ft 464 kts 214°
2026-04-26 14:05 -16.19583 -47.46663 38044 ft 464 kts 214°
2026-04-26 14:05 -16.24933 -47.50410 38046 ft 463 kts 214°
2026-04-26 14:06 -16.30275 -47.54155 38053 ft 463 kts 214°
2026-04-26 14:06 -16.35618 -47.57902 38050 ft 462 kts 214°
2026-04-26 14:07 -16.40956 -47.61648 38042 ft 462 kts 214°
2026-04-26 14:07 -16.46282 -47.65389 38050 ft 462 kts 214°
2026-04-26 14:08 -16.51604 -47.69129 38048 ft 461 kts 214°
2026-04-26 14:08 -16.56923 -47.72870 38051 ft 461 kts 214°
2026-04-26 14:09 -16.62204 -47.76587 38051 ft 461 kts 214°
2026-04-26 14:09 -16.67517 -47.80329 38048 ft 460 kts 214°
2026-04-26 14:10 -16.72823 -47.84068 38047 ft 460 kts 214°
2026-04-26 14:10 -16.78134 -47.87813 38045 ft 460 kts 214°
2026-04-26 14:11 -16.86096 -47.93433 38047 ft 460 kts 214°
2026-04-26 14:11 -16.91408 -47.97185 38045 ft 461 kts 214°
2026-04-26 14:12 -16.96724 -48.00943 38038 ft 461 kts 214°
2026-04-26 14:12 -17.02040 -48.04704 38043 ft 461 kts 214°
2026-04-26 14:13 -17.09976 -48.10322 38041 ft 461 kts 214°
2026-04-26 14:14 -17.15303 -48.14097 38037 ft 462 kts 214°
2026-04-26 14:14 -17.20622 -48.17869 38037 ft 462 kts 215°
2026-04-26 14:15 -17.25934 -48.21639 38040 ft 461 kts 215°
2026-04-26 14:15 -17.31242 -48.25408 38035 ft 461 kts 215°
2026-04-26 14:16 -17.36552 -48.29182 38035 ft 461 kts 215°
2026-04-26 14:16 -17.41859 -48.32955 38038 ft 461 kts 215°
2026-04-26 14:17 -17.47157 -48.36726 38029 ft 460 kts 215°
2026-04-26 14:17 -17.52449 -48.40495 38034 ft 460 kts 215°
2026-04-26 14:18 -17.57711 -48.44245 38034 ft 460 kts 215°
2026-04-26 14:18 -17.63003 -48.48020 38036 ft 460 kts 215°
2026-04-26 14:19 -17.68298 -48.51798 38030 ft 461 kts 215°
2026-04-26 14:19 -17.73634 -48.55609 38022 ft 460 kts 216°
2026-04-26 14:20 -17.78890 -48.59366 38026 ft 460 kts 216°
2026-04-26 14:20 -17.84185 -48.63154 38025 ft 460 kts 216°
2026-04-26 14:21 -17.89488 -48.66950 38029 ft 460 kts 216°
2026-04-26 14:21 -17.94784 -48.70743 38021 ft 460 kts 216°
2026-04-26 14:22 -18.00073 -48.74534 38025 ft 460 kts 216°
2026-04-26 14:22 -18.05334 -48.78308 38028 ft 461 kts 216°
2026-04-26 14:23 -18.10660 -48.82132 38025 ft 461 kts 216°
2026-04-26 14:23 -18.15920 -48.85911 38031 ft 461 kts 216°
2026-04-26 14:24 -18.21209 -48.89713 38029 ft 461 kts 216°
2026-04-26 14:24 -18.26504 -48.93523 38023 ft 461 kts 216°
2026-04-26 14:25 -18.31805 -48.97340 38023 ft 461 kts 216°
2026-04-26 14:25 -18.37062 -49.01128 38021 ft 460 kts 216°
2026-04-26 14:26 -18.42348 -49.04940 38023 ft 460 kts 216°
2026-04-26 14:26 -18.47624 -49.08748 38029 ft 460 kts 216°
2026-04-26 14:27 -18.52911 -49.12566 38019 ft 460 kts 217°
2026-04-26 14:27 -18.58187 -49.16381 38021 ft 460 kts 217°
2026-04-26 14:28 -18.63328 -49.20099 38014 ft 460 kts 217°
2026-04-26 14:28 -18.68574 -49.23897 38017 ft 461 kts 217°
2026-04-26 14:29 -18.72994 -49.27099 38014 ft 460 kts 217°
2026-04-26 14:29 -18.79137 -49.31552 38009 ft 461 kts 217°
2026-04-26 14:30 -18.84417 -49.35383 38011 ft 460 kts 217°
2026-04-26 14:30 -18.88839 -49.38594 38001 ft 460 kts 217°
2026-04-26 14:31 -18.94113 -49.42425 38016 ft 460 kts 217°
2026-04-26 14:31 -18.99383 -49.46258 38008 ft 460 kts 217°
2026-04-26 14:32 -19.04650 -49.50091 37999 ft 459 kts 217°
2026-04-26 14:32 -19.09877 -49.53898 38014 ft 459 kts 217°
2026-04-26 14:33 -19.15135 -49.57730 38007 ft 459 kts 217°
2026-04-26 14:33 -19.20399 -49.61570 37999 ft 458 kts 217°
2026-04-26 14:34 -19.25644 -49.65399 38014 ft 458 kts 217°
2026-04-26 14:34 -19.30891 -49.69233 37988 ft 458 kts 217°
2026-04-26 14:35 -19.36134 -49.73066 37997 ft 458 kts 217°
2026-04-26 14:35 -19.41374 -49.76901 38007 ft 458 kts 217°
2026-04-26 14:36 -19.46619 -49.80742 37992 ft 458 kts 218°
2026-04-26 14:36 -19.51821 -49.84555 37988 ft 458 kts 217°
2026-04-26 14:37 -19.57055 -49.88394 37992 ft 457 kts 217°
2026-04-26 14:37 -19.62283 -49.92232 37990 ft 457 kts 218°
2026-04-26 14:38 -19.67511 -49.96073 37986 ft 456 kts 218°
2026-04-26 14:38 -19.72727 -49.99908 37989 ft 456 kts 218°
2026-04-26 14:39 -19.77943 -50.03747 37988 ft 456 kts 218°
2026-04-26 14:39 -19.83157 -50.07587 37980 ft 456 kts 218°
2026-04-26 14:40 -19.88360 -50.11423 37986 ft 455 kts 218°
2026-04-26 14:40 -19.93568 -50.15265 37986 ft 455 kts 218°
2026-04-26 14:41 -19.98762 -50.19100 37994 ft 455 kts 218°
2026-04-26 14:41 -20.03959 -50.22942 38002 ft 455 kts 218°
2026-04-26 14:42 -20.09161 -50.26789 37979 ft 455 kts 218°
2026-04-26 14:42 -20.14531 -50.30288 37997 ft 457 kts 210°
2026-04-26 14:43 -20.20228 -50.33327 37985 ft 458 kts 209°
2026-04-26 14:43 -20.25943 -50.36346 37986 ft 458 kts 210°
2026-04-26 14:44 -20.31626 -50.39411 37993 ft 458 kts 210°
2026-04-26 14:44 -20.37294 -50.42502 38003 ft 458 kts 210°
2026-04-26 14:45 -20.42960 -50.45599 37988 ft 457 kts 210°
2026-04-26 14:45 -20.48630 -50.48698 37984 ft 457 kts 210°
2026-04-26 14:46 -20.54291 -50.51794 37991 ft 457 kts 210°
2026-04-26 14:46 -20.59950 -50.54891 37985 ft 457 kts 210°
2026-04-26 14:47 -20.65578 -50.57974 37982 ft 457 kts 210°
2026-04-26 14:47 -20.71235 -50.61076 37980 ft 457 kts 210°
2026-04-26 14:48 -20.76904 -50.64186 37980 ft 457 kts 210°
2026-04-26 14:48 -20.82542 -50.67325 37976 ft 457 kts 211°
2026-04-26 14:49 -20.88155 -50.70513 37984 ft 457 kts 211°
2026-04-26 14:49 -20.93769 -50.73701 37984 ft 457 kts 211°
2026-04-26 14:50 -20.99389 -50.76887 37978 ft 457 kts 211°
2026-04-26 14:50 -21.05011 -50.80074 37985 ft 457 kts 211°
2026-04-26 14:51 -21.10640 -50.83269 37979 ft 457 kts 211°
2026-04-26 14:51 -21.16227 -50.86432 37982 ft 457 kts 211°
2026-04-26 14:52 -21.21863 -50.89615 37981 ft 457 kts 211°
2026-04-26 14:52 -21.27492 -50.92799 37982 ft 457 kts 211°
2026-04-26 14:53 -21.33114 -50.95989 37976 ft 457 kts 211°
2026-04-26 14:53 -21.38739 -50.99185 37972 ft 457 kts 211°
2026-04-26 14:54 -21.44353 -51.02377 37975 ft 456 kts 211°
2026-04-26 14:54 -21.49959 -51.05579 37973 ft 456 kts 212°
2026-04-26 14:55 -21.55563 -51.08803 37972 ft 456 kts 212°
2026-04-26 14:55 -21.61155 -51.11958 37966 ft 457 kts 211°
2026-04-26 14:56 -21.66796 -51.15099 37969 ft 456 kts 211°
2026-04-26 14:56 -21.72429 -51.18252 37971 ft 456 kts 211°
2026-04-26 14:57 -21.78085 -51.21364 37965 ft 457 kts 210°
2026-04-26 14:57 -21.83775 -51.24422 37963 ft 456 kts 210°
2026-04-26 14:58 -21.89450 -51.27479 37976 ft 456 kts 211°
2026-04-26 14:58 -21.95114 -51.30546 37984 ft 455 kts 211°
2026-04-26 14:59 -22.00771 -51.33615 38002 ft 455 kts 211°
2026-04-26 14:59 -22.06430 -51.36689 38013 ft 455 kts 211°
2026-04-26 15:00 -22.12079 -51.39759 38026 ft 454 kts 211°
2026-04-26 15:00 -22.17724 -51.42843 38019 ft 453 kts 212°
2026-04-26 15:01 -22.23188 -51.46209 38020 ft 451 kts 215°
2026-04-26 15:01 -22.28523 -51.49679 38016 ft 450 kts 216°
2026-04-26 15:02 -22.33903 -51.53166 38000 ft 450 kts 215°
2026-04-26 15:02 -22.39288 -51.56624 37984 ft 450 kts 215°
2026-04-26 15:03 -22.44685 -51.60076 37967 ft 450 kts 215°
2026-04-26 15:03 -22.50068 -51.63521 37958 ft 449 kts 215°
2026-04-26 15:04 -22.55416 -51.66946 37956 ft 449 kts 215°
2026-04-26 15:04 -22.60795 -51.70395 37951 ft 449 kts 215°
2026-04-26 15:05 -22.66163 -51.73840 37952 ft 448 kts 216°
2026-04-26 15:05 -22.71526 -51.77285 37958 ft 448 kts 216°
2026-04-26 15:06 -22.76897 -51.80739 37966 ft 449 kts 216°
2026-04-26 15:06 -22.82274 -51.84200 37957 ft 449 kts 216°
2026-04-26 15:07 -22.90336 -51.89395 37962 ft 450 kts 216°
2026-04-26 15:07 -22.95687 -51.92847 37949 ft 450 kts 216°
2026-04-26 15:08 -23.01100 -51.96342 37963 ft 450 kts 216°
2026-04-26 15:08 -23.06446 -51.99794 37964 ft 449 kts 216°
2026-04-26 15:09 -23.11821 -52.03266 37958 ft 449 kts 216°
2026-04-26 15:09 -23.17150 -52.06714 37968 ft 448 kts 216°
2026-04-26 15:10 -23.21601 -52.09597 37985 ft 448 kts 216°
2026-04-26 15:10 -23.27817 -52.13628 37983 ft 447 kts 216°
2026-04-26 15:11 -23.33156 -52.17094 37989 ft 446 kts 217°
2026-04-26 15:11 -23.38475 -52.20550 38000 ft 445 kts 217°
2026-04-26 15:12 -23.43786 -52.24003 37981 ft 444 kts 217°
2026-04-26 15:12 -23.49079 -52.27449 37985 ft 442 kts 217°
2026-04-26 15:13 -23.54349 -52.30883 37976 ft 441 kts 217°
2026-04-26 15:13 -23.59621 -52.34322 37954 ft 440 kts 217°
2026-04-26 15:14 -23.64877 -52.37753 37953 ft 439 kts 217°
2026-04-26 15:14 -23.70078 -52.41151 37958 ft 438 kts 217°
2026-04-26 15:15 -23.75307 -52.44571 37955 ft 437 kts 217°
2026-04-26 15:15 -23.80520 -52.47983 37963 ft 436 kts 217°
2026-04-26 15:16 -23.85717 -52.51389 37963 ft 435 kts 217°
2026-04-26 15:16 -23.90034 -52.54221 37958 ft 434 kts 217°
2026-04-26 15:17 -23.94334 -52.57043 37978 ft 434 kts 218°
2026-04-26 15:17 -24.00384 -52.61018 37966 ft 433 kts 218°
2026-04-26 15:18 -24.05550 -52.64416 37971 ft 433 kts 218°
2026-04-26 15:18 -24.10712 -52.67814 37973 ft 433 kts 218°
2026-04-26 15:19 -24.15871 -52.71213 37978 ft 433 kts 218°
2026-04-26 15:19 -24.21033 -52.74619 37974 ft 433 kts 218°
2026-04-26 15:20 -24.23582 -52.76301 37823 ft 435 kts 218°
2026-04-26 15:20 -24.26188 -52.78025 37311 ft 438 kts 218°
2026-04-26 15:20 -24.28795 -52.79746 36744 ft 436 kts 218°
2026-04-26 15:20 -24.31388 -52.81459 36252 ft 434 kts 218°
2026-04-26 15:21 -24.33964 -52.83159 35859 ft 430 kts 218°
2026-04-26 15:21 -24.36514 -52.84844 35432 ft 427 kts 218°
2026-04-26 15:21 -24.39053 -52.86524 35014 ft 424 kts 218°
2026-04-26 15:21 -24.41568 -52.88190 34591 ft 422 kts 218°
2026-04-26 15:22 -24.44081 -52.89855 34173 ft 419 kts 218°
2026-04-26 15:22 -24.46575 -52.91510 33727 ft 418 kts 219°
2026-04-26 15:22 -24.49068 -52.93165 33223 ft 418 kts 218°
2026-04-26 15:22 -24.51541 -52.94806 32823 ft 414 kts 218°
2026-04-26 15:23 -24.53998 -52.96436 32408 ft 410 kts 218°
2026-04-26 15:23 -24.56435 -52.98054 32000 ft 407 kts 218°
2026-04-26 15:23 -24.58852 -52.99661 31598 ft 404 kts 218°
2026-04-26 15:23 -24.61245 -53.01252 31195 ft 401 kts 218°
2026-04-26 15:24 -24.63597 -53.02816 30807 ft 399 kts 218°
2026-04-26 15:24 -24.65876 -53.04499 30406 ft 391 kts 227°
2026-04-26 15:24 -24.67814 -53.06562 30032 ft 384 kts 234°
2026-04-26 15:24 -24.69445 -53.08861 29587 ft 380 kts 243°
2026-04-26 15:25 -24.70717 -53.11388 29074 ft 376 kts 248°
2026-04-26 15:25 -24.71499 -53.13075 28785 ft 373 kts 248°
2026-04-26 15:25 -24.73054 -53.16463 28216 ft 368 kts 248°
2026-04-26 15:25 -24.74205 -53.18968 27797 ft 365 kts 248°
2026-04-26 15:26 -24.75349 -53.21450 27381 ft 362 kts 247°
2026-04-26 15:26 -24.76486 -53.23911 26977 ft 359 kts 247°
2026-04-26 15:26 -24.77616 -53.26353 26570 ft 356 kts 247°
2026-04-26 15:26 -24.78724 -53.28744 26180 ft 354 kts 247°
2026-04-26 15:27 -24.79854 -53.31178 25784 ft 352 kts 247°
2026-04-26 15:27 -24.80949 -53.33540 25399 ft 350 kts 247°
2026-04-26 15:27 -24.82051 -53.35916 24990 ft 348 kts 247°
2026-04-26 15:27 -24.83150 -53.38288 24600 ft 347 kts 247°
2026-04-26 15:28 -24.84243 -53.40647 24187 ft 346 kts 246°
2026-04-26 15:28 -24.85333 -53.43001 23791 ft 345 kts 246°
2026-04-26 15:28 -24.86423 -53.45355 23343 ft 344 kts 246°
2026-04-26 15:28 -24.87506 -53.47694 22929 ft 342 kts 246°
2026-04-26 15:29 -24.88584 -53.50023 22518 ft 340 kts 247°
2026-04-26 15:29 -24.89653 -53.52335 22130 ft 337 kts 246°
2026-04-26 15:29 -24.91764 -53.56903 21362 ft 332 kts 247°
2026-04-26 15:30 -24.93842 -53.61406 20600 ft 327 kts 247°
2026-04-26 15:30 -24.94871 -53.63636 20225 ft 325 kts 247°
2026-04-26 15:30 -24.95881 -53.65829 19840 ft 325 kts 247°
2026-04-26 15:31 -24.96904 -53.68050 19449 ft 325 kts 247°
2026-04-26 15:31 -24.98937 -53.72467 18694 ft 322 kts 246°
2026-04-26 15:31 -24.99954 -53.74679 18283 ft 324 kts 246°
2026-04-26 15:32 -25.01639 -53.78344 17602 ft 321 kts 247°
2026-04-26 15:32 -25.02978 -53.81257 17105 ft 317 kts 247°
2026-04-26 15:32 -25.03972 -53.83421 16723 ft 315 kts 247°
2026-04-26 15:33 -25.04956 -53.85563 16366 ft 312 kts 247°
2026-04-26 15:33 -25.05934 -53.87696 16001 ft 311 kts 247°
2026-04-26 15:33 -25.06906 -53.89815 15629 ft 309 kts 247°
2026-04-26 15:33 -25.07873 -53.91925 15274 ft 307 kts 247°
2026-04-26 15:34 -25.08832 -53.94018 14925 ft 304 kts 247°
2026-04-26 15:34 -25.09772 -53.96071 14585 ft 303 kts 247°
2026-04-26 15:34 -25.10717 -53.98137 14245 ft 301 kts 247°
2026-04-26 15:34 -25.11663 -54.00205 13876 ft 301 kts 247°
2026-04-26 15:35 -25.12603 -54.02263 13485 ft 300 kts 247°
2026-04-26 15:35 -25.13541 -54.04314 13130 ft 298 kts 247°
2026-04-26 15:35 -25.14472 -54.06353 12771 ft 296 kts 247°
2026-04-26 15:35 -25.15396 -54.08377 12416 ft 294 kts 247°
2026-04-26 15:36 -25.16311 -54.10379 12077 ft 291 kts 247°
2026-04-26 15:36 -25.17218 -54.12368 11738 ft 288 kts 247°
2026-04-26 15:36 -25.18115 -54.14336 11424 ft 287 kts 247°
2026-04-26 15:36 -25.19001 -54.16280 11083 ft 285 kts 247°
2026-04-26 15:37 -25.19893 -54.18238 10753 ft 288 kts 247°
2026-04-26 15:37 -25.20797 -54.20226 10375 ft 289 kts 247°
2026-04-26 15:37 -25.21691 -54.22188 10185 ft 281 kts 247°
2026-04-26 15:37 -25.22559 -54.24090 10065 ft 275 kts 246°
2026-04-26 15:38 -25.23414 -54.25970 9892 ft 275 kts 247°
2026-04-26 15:38 -25.24264 -54.27839 9877 ft 268 kts 247°
2026-04-26 15:38 -25.25088 -54.29650 9780 ft 261 kts 247°
2026-04-26 15:38 -25.25893 -54.31422 9574 ft 256 kts 247°
2026-04-26 15:39 -25.26688 -54.33174 9283 ft 255 kts 247°
2026-04-26 15:39 -25.27483 -54.34929 9044 ft 254 kts 247°
2026-04-26 15:39 -25.28265 -54.36653 8785 ft 253 kts 247°
2026-04-26 15:39 -25.28797 -54.37827 8623 ft 253 kts 247°
2026-04-26 15:40 -25.29841 -54.40130 8252 ft 253 kts 247°
2026-04-26 15:40 -25.30628 -54.41868 7984 ft 251 kts 247°
2026-04-26 15:40 -25.31404 -54.43579 7593 ft 248 kts 247°
2026-04-26 15:40 -25.32177 -54.45288 7103 ft 249 kts 246°
2026-04-26 15:41 -25.32954 -54.47005 6617 ft 249 kts 246°
2026-04-26 15:41 -25.33725 -54.48710 6186 ft 247 kts 246°
2026-04-26 15:41 -25.34494 -54.50412 5839 ft 247 kts 245°
2026-04-26 15:41 -25.35269 -54.52125 5532 ft 253 kts 246°
2026-04-26 15:42 -25.36056 -54.53865 5216 ft 252 kts 246°
2026-04-26 15:42 -25.36842 -54.55605 4901 ft 253 kts 245°
2026-04-26 15:42 -25.37626 -54.57340 4631 ft 252 kts 245°
2026-04-26 15:42 -25.38489 -54.59004 4468 ft 248 kts 230°
2026-04-26 15:43 -25.39839 -54.60154 4367 ft 243 kts 211°
2026-04-26 15:43 -25.41374 -54.60868 4257 ft 235 kts 204°
2026-04-26 15:43 -25.44284 -54.62016 4062 ft 211 kts 203°
2026-04-26 15:44 -25.45629 -54.62558 3935 ft 204 kts 205°
2026-04-26 15:44 -25.48330 -54.62536 3623 ft 204 kts 148°
2026-04-26 15:44 -25.49423 -54.61530 3373 ft 204 kts 141°
2026-04-26 15:45 -25.51340 -54.59369 2872 ft 189 kts 133°
2026-04-26 15:45 -25.52178 -54.58284 2605 ft 181 kts 134°
2026-04-26 15:46 -25.53702 -54.56315 2183 ft 159 kts 135°
2026-04-26 15:46 -25.54436 -54.55372 2000 ft 165 kts 135°
2026-04-26 15:46 -25.55176 -54.54411 1759 ft 159 kts 134°
2026-04-26 15:46 -25.55655 -54.53795 1651 ft 161 kts 133°
2026-04-26 15:47 -25.56618 -54.52552 1354 ft 156 kts 133°
2026-04-26 15:47 -25.58027 -54.50731 946 ft 155 kts 132°
2026-04-26 15:47 -25.58704 -54.49850 817 ft 147 kts 133°
2026-04-26 15:48 -25.59330 -54.49057 798 ft 112 kts 130°
2026-04-26 15:48 -25.59663 -54.48628 797 ft 36 kts 130°
2026-04-26 15:48 -25.59784 -54.48489 794 ft 9 kts 171°
2026-04-26 15:48 -25.59835 -54.48517 796 ft 7 kts 221°
2026-04-26 15:49 -25.59845 -54.48564 797 ft 7 kts 289°
2026-04-26 15:49 -25.59816 -54.48603 797 ft 7 kts 310°
2026-04-26 15:49 -25.59787 -54.48641 797 ft 6 kts 310°
2026-04-26 15:49 -25.59759 -54.48679 797 ft 6 kts 310°
2026-04-26 15:50 -25.59731 -54.48715 797 ft 6 kts 310°
2026-04-26 15:50 -25.59736 -54.48751 797 ft 5 kts 226°
2026-04-26 15:50 -25.59754 -54.48768 797 ft 2 kts 220°
2026-04-26 15:50 -25.59756 -54.48770 797 ft 0 kts 220°